Other Surface Observations
Issued by NWS

Home | Current Version | Previous Version | Text Only | Print | Product List | Glossary On
Versions: 1 2 3 4 5 6 7 8 9 10 11 12 13 14 15 16 17 18 19 20 21 22 23 24 25 26 27 28 29 30 31 32 33 34 35 36 37 38 39 40 41 42 43 44 45 46 47 48 49 50
000
SXUS52 KTAE 300605
OSOTAE
OSOTAE
North Florida/South Alabama/Southwest Georgia Weather Roundup
National Weather Service Tallahassee Florida
200 AM EDT WED JUL 30 2014

Note: "fair" indicates few or no clouds below 12,000 feet with no
significant weather and/or obstructions to visibility.

!FLZ017-115-028-034-025-300700
...North Florida...

CITY           SKY/WX    TMP DP  RH WIND       PRES   REMARKS
TALLAHASSEE      N/A     71  64  78 CALM        N/A
APALACHICOLA   CLEAR     70  66  87 CALM      29.98S
PERRY          CLEAR     70  64  83 CALM      29.97F
CROSS CITY       N/A     70  66  87 CALM      29.96S
HOMERVILLE     FAIR      68  64  88 CALM      29.97F
JACKSONVILLE   MOCLDY    76  62  62 NW9       29.93S
$$

!FLZ112-006-005-002-011-300700
...Florida Panhandle...

CITY           SKY/WX    TMP DP  RH WIND       PRES   REMARKS
MARIANNA       CLEAR     71  68  90 CALM      29.98F
BONIFAY        FAIR      68  67  96 CALM      30.00F
PANAMA CITY NW FAIR      71  67  87 CALM      29.98F
TYNDALL AFB    CLEAR     72  67  84 N2        29.99F
TYND DRONE APT FAIR      75  67  78 N5        29.97F
DE FUNIAK SPR  MOCLDY    73  64  72 N7        30.01F
EGLIN AFB      MOCLDY    74  65  72 N3        29.99F
DESTIN         CLOUDY    80  65  59 N8        30.00S
HURLBURT       MOCLDY    75  62  64 N8        29.99F
CRESTVIEW      MOCLDY    74  63  68 N5        30.02F
PENSACOLA      CLEAR     75  64  68 N9        30.01S
$$

!ALZ063-066-300700
...South Alabama...

CITY           SKY/WX    TMP DP  RH WIND       PRES   REMARKS
DOTHAN         CLEAR     70  65  84 NW6       30.04F
OZARK CAIRNS   PTCLDY    71  63  75 NW6       30.00F
FT RUCKER HELI CLEAR     66  62  87 CALM      30.00F
RUCKER HELI 3  FAIR      69  63  81 NW5       30.04F
RUCKER HELI 2  FAIR      69  63  81 NW6       30.00F
FLORALA APT    CLEAR     72  63  73 CALM      30.03F
ANDALUSIA      PTCLDY    74  61  63 N5        30.02F
TROY           CLEAR     64  61  90 CALM      30.04S
EUFALA         FAIR      67  61  81 CALM      30.00F
MOBILE         PTCLDY    74  64  71 N8        30.05S
$$

!GAZ120>161-300700
...Southwest and South Central Georgia...

CITY           SKY/WX    TMP DP  RH WIND       PRES   REMARKS
THOMASVILLE    FAIR      73  63  68 NW5       29.99S
BAINBRIDGE     CLEAR     73  68  83 CALM      29.98F
MOODY AFB      CLEAR     70  67  91 VRB1      29.96F
VALDOSTA       CLEAR     72  61  68 CALM      29.97F
MOULTRIE       CLEAR     70  64  83 NW3       29.99F FOG
BLAKELY        CLEAR     70  64  83 CALM      30.00S
ALBANY         CLEAR     67  62  84 CALM      30.00F
TIFTON         FAIR      73  60  63 CALM      29.98F
FITZGERALD     FAIR      71  62  71 NW3       30.00F
CORDELE        FAIR      69  61  77 CALM      29.99F
AMERICUS       FAIR      68  59  73 N3        30.01F
$$

!GMZ750-755-770-775-300700
...Coastal and Buoy Obs...

STATION/POSITION TIME  TEMP    WIND        PRES    VSBY  WAVE
                       AIR SEA DIR/SP/G                  HT/PER
                 (UTC) (F)     (DEG/KT/KT) (MB)    (MI)  (FT/S)
KEATON BEACH     0600   77     360/  4/  7 1014.7F
CEDAR KEY        0500   81     360/  4/  5 1015.0S
C TOWER          0600   82      10/ 12/ 13 1015.0R
APALACHICOLA BUO 0600   83 85  310/ 10/ 12 1014.7F         3/ 6
PANAMA CITY BUOY NOT AVBL
MOBILE BUOY      0458   83 86  300/  8/  8 1016.6F
ORANGE BCH AL BU 0600   82 83   30/ 14/ 16 1015.9F         1/ 5
$$



USA.gov is the U.S. government's official web portal to all federal, state and local government web resources and services.